EW5290 Weather Reports


Display with metric or nautical units.
time (UTC)temp
F
wind
direction
speed
MPH
gust
MPH
rain 1hr
in
rain 24hr
in
rain mn
in
humidity
%
barometer
mb
20260906143055 68 56 0.0 3.0 0.00 0.00 0.00 98 1019.0
20260906142529 68 94 0.0 3.0 0.00 0.00 0.00 98 1019.2
20260906142029 68 0 0.0 2.0 0.00 0.00 0.00 98 1019.2
20260906141604 68 0 0.0 2.0 0.00 0.00 0.00 98 1019.2
20260906141031 68 111 0.0 2.0 0.00 0.00 0.00 99 1019.3
20260906140527 68 105 0.0 3.0 0.00 0.00 0.00 99 1019.3
20260906140047 68 266 0.0 3.0 0.00 0.00 0.00 99 1019.3
20260906135530 68 51 0.0 2.0 0.00 0.00 0.00 99 1019.2
20260906135029 68 0 0.0 2.0 0.00 0.00 0.00 99 1019.1
20260906134554 68 0 0.0 2.0 0.00 0.00 0.00 99 1019.2
20260906134029 68 0 0.0 2.0 0.00 0.00 0.00 99 1019.2
20260906133528 68 0 0.0 2.0 0.00 0.00 0.00 99 1019.1
20260906133049 68 0 0.0 2.0 0.00 0.00 0.00 99 1019.2
20260906132533 68 81 0.0 2.0 0.00 0.00 0.00 99 1019.2
20260906132031 68 0 0.0 2.0 0.00 0.00 0.00 99 1019.2
20260906131546 68 101 0.0 2.0 0.00 0.00 0.00 99 1019.2
20260906131030 68 90 0.0 2.0 0.00 0.00 0.00 99 1019.1
20260906130528 68 20 0.0 2.0 0.00 0.00 0.00 99 1019.0
20260906130056 68 0 0.0 2.0 0.00 0.00 0.00 99 1018.9
20260906125529 68 0 0.0 3.0 0.00 0.00 0.00 99 1018.7
20260906125029 68 0 0.0 3.0 0.00 0.00 0.00 99 1018.7
20260906124552 68 60 0.0 3.0 0.00 0.00 0.00 99 1018.6
20260906124028 68 0 0.0 3.0 0.00 0.00 0.00 99 1018.5
20260906123529 68 0 0.0 4.0 0.00 0.00 0.00 99 1018.5
20260906123048 68 0 0.0 4.0 0.00 0.00 0.00 99 1018.4
20260906122528 68 0 0.0 5.0 0.00 0.00 0.00 99 1018.3
20260906122029 68 0 0.0 5.0 0.00 0.00 0.00 99 1018.3
20260906121556 68 5 0.0 5.0 0.00 0.00 0.00 99 1018.2
20260906121028 68 0 0.0 2.0 0.00 0.00 0.00 99 1018.0
20260906120529 68 59 0.0 1.0 0.00 0.00 0.00 99 1018.1
20260906120105 68 0 0.0 1.0 0.00 0.00 0.00 99 1018.1
20260906115533 68 0 0.0 2.0 0.00 0.00 0.00 99 1018.1
20260906115028 68 0 0.0 2.0 0.00 0.00 0.00 99 1017.9
20260906114551 68 0 0.0 2.0 0.00 0.00 0.00 99 1017.8
20260906114027 68 104 0.0 1.0 0.00 0.00 0.00 99 1017.9
20260906113527 67 0 0.0 1.0 0.00 0.00 0.00 99 1017.9
20260906113058 67 0 0.0 1.0 0.00 0.00 0.00 98 1017.9
20260906112528 67 0 0.0 1.0 0.00 0.00 0.00 98 1017.8
20260906112030 67 0 0.0 1.0 0.00 0.00 0.00 98 1017.7
20260906111551 67 0 0.0 1.0 0.00 0.00 0.00 98 1017.7
20260906111030 67 0 0.0 1.0 0.00 0.00 0.00 98 1017.7
20260906110531 67 0 0.0 1.0 0.00 0.00 0.00 98 1017.8
20260906110055 67 0 0.0 1.0 0.00 0.00 0.00 98 1017.9
20260906105529 67 0 0.0 1.0 0.00 0.00 0.00 98 1017.8
20260906105030 67 0 0.0 1.0 0.00 0.00 0.00 98 1017.8
20260906104611 67 0 0.0 1.0 0.00 0.00 0.00 98 1017.8
20260906104029 67 0 0.0 1.0 0.00 0.00 0.00 98 1017.9
20260906103527 67 0 0.0 1.0 0.00 0.00 0.00 98 1017.9
20260906103049 67 0 0.0 0.0 0.00 0.00 0.00 98 1017.9
20260906102529 67 0 0.0 0.0 0.00 0.00 0.00 98 1018.0
20260906102030 67 0 0.0 0.0 0.00 0.00 0.00 98 1018.0
20260906101556 67 0 0.0 0.0 0.00 0.00 0.00 98 1017.9
20260906101029 67 0 0.0 0.0 0.00 0.00 0.00 98 1018.0
20260906100528 67 0 0.0 0.0 0.00 0.00 0.00 98 1017.8
20260906100054 67 0 0.0 1.0 0.00 0.00 0.00 98 1017.8
20260906095529 67 0 0.0 1.0 0.00 0.00 0.00 98 1017.7
20260906095030 67 0 0.0 1.0 0.00 0.00 0.00 98 1017.7
20260906094626 67 0 0.0 1.0 0.00 0.00 0.00 98 1017.6
20260906094034 67 106 0.0 1.0 0.00 0.00 0.00 98 1017.4
20260906093528 67 0 0.0 1.0 0.00 0.00 0.00 98 1017.3
20260906093107 67 0 0.0 1.0 0.00 0.00 0.00 98 1017.5
20260906092528 67 0 0.0 1.0 0.00 0.00 0.00 98 1017.5
20260906092031 67 0 0.0 0.0 0.00 0.00 0.00 98 1017.4
20260906091555 67 0 0.0 0.0 0.00 0.00 0.00 98 1017.5
20260906091027 67 0 0.0 0.0 0.00 0.00 0.00 98 1017.6
20260906090535 67 0 0.0 0.0 0.00 0.00 0.00 98 1017.6
20260906090051 68 0 0.0 0.0 0.00 0.00 0.00 98 1017.6
20260906085529 68 0 0.0 0.0 0.00 0.00 0.00 98 1017.4
20260906085028 68 0 0.0 0.0 0.00 0.00 0.00 98 1017.3
20260906084557 68 0 0.0 0.0 0.00 0.00 0.00 97 1017.2
20260906084028 68 0 0.0 1.0 0.00 0.00 0.00 98 1017.0
20260906083533 68 0 0.0 1.0 0.00 0.00 0.00 98 1016.9
20260906083052 68 0 0.0 1.0 0.00 0.00 0.00 98 1016.8
20260906082528 68 0 0.0 1.0 0.00 0.00 0.00 98 1016.8
20260906082027 68 0 0.0 1.0 0.00 0.00 0.00 98 1016.9
20260906081554 68 0 0.0 1.0 0.00 0.00 0.00 98 1017.0
20260906081030 68 0 0.0 0.0 0.00 0.00 0.00 98 1017.0
20260906080529 68 0 0.0 0.0 0.00 0.00 0.00 98 1017.0
20260906080055 68 0 0.0 0.0 0.00 0.00 0.00 98 1017.0
20260906075529 69 0 0.0 0.0 0.00 0.00 0.00 98 1017.0
20260906075030 69 0 0.0 1.0 0.00 0.00 0.00 98 1017.1
20260906074553 69 0 0.0 1.0 0.00 0.00 0.00 98 1017.0
20260906074029 69 0 0.0 1.0 0.00 0.00 0.00 98 1017.0
20260906073530 69 0 0.0 1.0 0.00 0.00 0.00 98 1017.0
20260906073047 69 0 0.0 1.0 0.00 0.00 0.00 98 1017.1
20260906072529 69 0 0.0 1.0 0.00 0.00 0.00 98 1017.2
20260906072030 69 0 0.0 1.0 0.00 0.00 0.00 98 1017.2
20260906071555 69 0 0.0 1.0 0.00 0.00 0.00 98 1017.3
20260906071029 69 0 0.0 0.0 0.00 0.00 0.00 98 1017.3
20260906070533 69 0 0.0 0.0 0.00 0.00 0.00 98 1017.3
20260906070057 69 0 0.0 0.0 0.00 0.00 0.00 98 1017.4
20260906065528 69 0 0.0 0.0 0.00 0.00 0.00 98 1017.4
20260906065029 69 0 0.0 0.0 0.00 0.00 0.00 98 1017.4
20260906064550 69 0 0.0 0.0 0.00 0.00 0.00 98 1017.5
20260906064029 70 0 0.0 1.0 0.00 0.00 0.00 98 1017.5
20260906063528 70 0 0.0 1.0 0.00 0.00 0.00 98 1017.6
20260906063058 70 0 0.0 1.0 0.00 0.00 0.00 98 1017.5
20260906062529 70 0 0.0 1.0 0.00 0.00 0.00 98 1017.6
20260906062028 70 0 0.0 2.0 0.00 0.00 0.00 98 1017.5
20260906061557 70 0 0.0 2.0 0.00 0.00 0.00 98 1017.4
20260906061028 70 0 0.0 2.0 0.00 0.00 0.00 98 1017.5
20260906060528 70 0 0.0 2.0 0.00 0.00 0.00 98 1017.5
20260906060057 70 42 0.0 2.0 0.00 0.00 0.00 98 1017.5
20260906055532 70 0 0.0 2.0 0.00 0.00 0.00 98 1017.6
20260906055030 70 0 0.0 1.0 0.00 0.00 0.00 98 1017.6
20260906054549 70 100 0.0 1.0 0.00 0.00 0.00 98 1017.5
20260906054028 70 63 0.0 1.0 0.00 0.00 0.00 98 1017.5
20260906053527 70 0 0.0 1.0 0.00 0.00 0.00 98 1017.6
20260906053059 71 0 0.0 1.0 0.00 0.00 0.00 98 1017.5
20260906052528 71 0 0.0 1.0 0.00 0.00 0.00 98 1017.5
20260906052029 71 0 0.0 1.0 0.00 0.00 0.00 98 1017.6
20260906051556 71 0 0.0 1.0 0.00 0.00 0.00 98 1017.6
20260906051030 71 0 0.0 0.0 0.00 0.00 0.00 98 1017.4
20260906050528 71 0 0.0 0.0 0.00 0.00 0.00 98 1017.5
20260906050113 71 0 0.0 0.0 0.00 0.00 0.00 98 1017.3
20260906045530 71 0 0.0 0.0 0.00 0.00 0.00 98 1017.1
20260906045029 71 0 0.0 0.0 0.00 0.00 0.00 97 1017.1
20260906044557 71 0 0.0 0.0 0.00 0.00 0.00 97 1017.1
20260906044029 71 0 0.0 0.0 0.00 0.00 0.00 97 1017.1
20260906043530 71 0 0.0 0.0 0.00 0.00 0.00 97 1017.1
20260906043058 71 0 0.0 0.0 0.00 0.00 0.00 97 1017.2
20260906042527 71 0 0.0 1.0 0.00 0.00 0.00 97 1017.2
20260906042029 71 0 0.0 1.0 0.00 0.00 0.00 97 1017.1
20260906041554 71 0 0.0 0.0 0.00 0.00 0.00 97 1017.1
20260906041034 71 0 0.0 1.0 0.00 0.00 0.00 97 1017.1
20260906040533 71 0 0.0 1.0 0.00 0.00 0.00 97 1017.2
20260906040114 71 0 0.0 0.0 0.00 0.00 0.00 97 1017.1
20260906035527 72 0 0.0 0.0 0.00 0.00 0.00 97 1016.9
20260906035029 72 0 0.0 0.0 0.00 0.00 0.00 97 1016.7
20260906034600 72 0 0.0 0.0 0.00 0.00 0.00 97 1017.0
20260906034028 72 0 0.0 0.0 0.00 0.00 0.00 97 1017.1
20260906033529 72 0 0.0 0.0 0.00 0.00 0.00 97 1017.1
20260906033047 72 0 0.0 0.0 0.00 0.00 0.00 97 1016.9
20260906032527 72 0 0.0 0.0 0.00 0.00 0.00 97 1017.0
20260906032028 72 0 0.0 0.0 0.00 0.00 0.00 97 1017.1
20260906031600 72 0 0.0 0.0 0.00 0.00 0.00 97 1017.1
20260906031030 72 0 0.0 0.0 0.00 0.00 0.00 96 1017.2
20260906030530 72 0 0.0 0.0 0.00 0.00 0.00 96 1017.2
20260906030053 72 0 0.0 0.0 0.00 0.00 0.00 96 1017.2
20260906025534 72 0 0.0 0.0 0.00 0.00 0.00 96 1017.0
20260906025029 72 0 0.0 0.0 0.00 0.00 0.00 96 1017.0
20260906024551 72 0 0.0 0.0 0.00 0.00 0.00 96 1017.0
20260906024031 73 0 0.0 0.0 0.00 0.00 0.00 96 1017.1
20260906023529 73 0 0.0 0.0 0.00 0.00 0.00 96 1017.1
20260906023055 73 0 0.0 0.0 0.00 0.00 0.00 96 1017.1
20260906022530 73 0 0.0 0.0 0.00 0.00 0.00 96 1017.0
20260906022033 73 0 0.0 0.0 0.00 0.00 0.00 95 1017.0
20260906021604 73 0 0.0 0.0 0.00 0.00 0.00 95 1017.0
20260906021028 73 0 0.0 0.0 0.00 0.00 0.00 95 1016.8
20260906020527 73 0 0.0 0.0 0.00 0.00 0.00 95 1016.8
20260906020059 73 0 0.0 0.0 0.00 0.00 0.00 95 1016.7
20260906015528 73 0 0.0 0.0 0.00 0.00 0.00 95 1016.5
20260906015030 74 0 0.0 0.0 0.00 0.00 0.00 95 1016.4
20260906014600 74 0 0.0 0.0 0.00 0.00 0.00 95 1016.5
20260906014029 74 0 0.0 0.0 0.00 0.00 0.00 95 1016.3
20260906013530 74 0 0.0 0.0 0.00 0.00 0.00 95 1016.2
20260906013056 74 0 0.0 0.0 0.00 0.00 0.00 95 1016.2
20260906012529 74 0 0.0 0.0 0.00 0.00 0.00 94 1016.2
20260906012030 74 0 0.0 0.0 0.00 0.00 0.00 94 1016.2
20260906011550 74 0 0.0 0.0 0.00 0.00 0.00 94 1016.2
20260906011032 74 0 0.0 0.0 0.00 0.00 0.00 94 1016.1
20260906010527 74 0 0.0 0.0 0.00 0.00 0.00 94 1016.0
20260906010051 75 0 0.0 0.0 0.00 0.00 0.00 93 1016.1
20260906005529 75 0 0.0 0.0 0.00 0.00 0.00 93 1016.1
20260906005029 75 0 0.0 0.0 0.00 0.00 0.00 93 1016.1
20260906004555 75 0 0.0 0.0 0.00 0.00 0.00 93 1016.1
20260906004030 75 0 0.0 0.0 0.00 0.00 0.00 92 1016.0
20260906003530 76 0 0.0 0.0 0.00 0.00 0.00 92 1016.0
20260906003048 76 0 0.0 0.0 0.00 0.00 0.00 92 1016.0
20260906002530 76 0 0.0 0.0 0.00 0.00 0.00 92 1016.0
20260906002031 76 0 0.0 0.0 0.00 0.00 0.00 91 1015.9
20260906001609 76 0 0.0 0.0 0.00 0.00 0.00 91 1015.9
20260906001029 76 0 0.0 0.0 0.00 0.00 0.00 91 1015.8
20260906000528 77 0 0.0 0.0 0.00 0.00 0.00 90 1015.8
20260906000056 77 0 0.0 0.0 0.00 0.00 0.00 90 1015.8
20260905235529 77 0 0.0 0.0 0.00 0.00 0.00 89 1015.8
20260905235031 77 0 0.0 0.0 0.00 0.00 0.00 89 1015.8
20260905234549 77 0 0.0 1.0 0.00 0.00 0.00 89 1015.6
20260905234032 77 0 0.0 1.0 0.00 0.00 0.00 88 1015.6
20260905233528 77 0 0.0 0.0 0.00 0.00 0.00 88 1015.7
20260905233047 78 0 0.0 0.0 0.00 0.00 0.00 88 1015.8
20260905232531 78 0 0.0 0.0 0.00 0.00 0.00 88 1015.8
20260905232029 78 0 0.0 0.0 0.00 0.00 0.00 87 1015.8
20260905231549 78 0 0.0 0.0 0.00 0.00 0.00 87 1015.6
20260905231028 78 0 0.0 0.0 0.00 0.00 0.00 87 1015.6
20260905230530 78 0 0.0 0.0 0.00 0.00 0.00 86 1015.6
20260905230056 79 0 0.0 0.0 0.00 0.00 0.00 87 1015.5
20260905225531 79 0 0.0 2.0 0.00 0.00 0.00 86 1015.4
20260905225029 79 0 0.0 2.0 0.00 0.00 0.00 85 1015.5
20260905224558 79 0 0.0 2.0 0.00 0.00 0.00 85 1015.5
20260905224028 80 0 0.0 1.0 0.00 0.00 0.00 85 1015.4
20260905223528 80 0 0.0 3.0 0.00 0.00 0.00 84 1015.2
20260905223058 80 0 0.0 3.0 0.00 0.00 0.00 83 1015.1
20260905222529 80 98 0.0 3.0 0.00 0.00 0.00 83 1015.1
20260905222033 80 86 0.0 3.0 0.00 0.00 0.00 84 1015.0
20260905221559 81 0 0.0 3.0 0.00 0.00 0.00 85 1015.1
20260905221028 81 121 0.0 2.0 0.00 0.00 0.00 86 1015.2
20260905220529 81 0 0.0 3.0 0.00 0.00 0.00 86 1015.1
20260905215527 81 52 0.0 3.0 0.00 0.00 0.00 87 1015.0
20260905215029 81 0 0.0 2.0 0.00 0.00 0.00 87 1014.9
20260905214549 80 0 0.0 2.0 0.00 0.00 0.00 87 1015.0
20260905214030 80 0 0.0 2.0 0.00 0.00 0.00 86 1014.8
20260905213530 80 88 0.0 2.0 0.00 0.00 0.00 88 1014.9
20260905213047 80 0 0.0 2.0 0.00 0.00 0.00 88 1015.0
20260905212528 80 0 0.0 4.0 0.00 0.00 0.00 88 1015.1
20260905212031 80 114 1.0 4.0 0.00 0.00 0.00 88 1015.1
20260905211553 80 69 0.0 3.0 0.00 0.00 0.00 89 1015.2
20260905211031 80 0 0.0 3.0 0.00 0.00 0.00 89 1015.2
20260905210531 80 0 0.0 2.0 0.00 0.00 0.00 89 1015.2
20260905210105 79 0 0.0 2.0 0.00 0.00 0.00 89 1015.2
20260905205528 79 96 0.0 2.0 0.00 0.00 0.00 89 1015.3
20260905205029 79 96 0.0 3.0 0.00 0.00 0.00 89 1015.3
20260905204556 79 0 0.0 3.0 0.00 0.00 0.00 90 1015.3
20260905204028 79 0 0.0 3.0 0.00 0.00 0.00 90 1015.3
20260905203530 79 104 0.0 2.0 0.00 0.00 0.00 91 1015.4
20260905203050 79 0 0.0 2.0 0.00 0.00 0.00 91 1015.4
20260905202529 79 0 0.0 2.0 0.00 0.00 0.00 91 1015.3
20260905202030 79 0 0.0 2.0 0.00 0.00 0.00 91 1015.3
20260905201605 79 0 0.0 3.0 0.00 0.00 0.00 91 1015.3
20260905201032 79 0 0.0 3.0 0.00 0.00 0.00 91 1015.4
20260905200528 79 0 0.0 2.0 0.00 0.00 0.00 91 1015.4
20260905200123 79 74 0.0 2.0 0.00 0.00 0.00 91 1015.4
20260905195531 79 0 0.0 2.0 0.00 0.00 0.00 91 1015.5
20260905195028 79 0 0.0 2.0 0.00 0.00 0.00 91 1015.5
20260905194553 79 0 0.0 3.0 0.00 0.00 0.00 91 1015.6
20260905194028 79 178 0.0 4.0 0.00 0.00 0.00 91 1015.8
20260905193530 79 0 0.0 4.0 0.00 0.00 0.00 90 1015.3
20260905193048 79 84 0.0 2.0 0.00 0.00 0.00 90 1015.2
20260905192531 79 0 0.0 2.0 0.00 0.00 0.00 90 1015.5
20260905192032 79 0 0.0 3.0 0.00 0.00 0.00 90 1015.7
20260905191550 79 0 0.0 3.0 0.00 0.00 0.00 89 1015.6
20260905191029 79 198 0.0 3.0 0.00 0.00 0.00 89 1015.5
20260905190529 79 0 0.0 3.0 0.00 0.00 0.00 89 1015.4
20260905190054 79 78 0.0 3.0 0.00 0.00 0.00 90 1015.2
20260905185530 78 0 0.0 5.0 0.00 0.00 0.00 89 1015.1
20260905185027 78 0 1.0 5.0 0.00 0.00 0.00 88 1015.1
20260905184559 78 67 0.0 2.0 0.00 0.00 0.00 89 1015.1
20260905184029 78 106 0.0 3.0 0.00 0.00 0.00 89 1015.1
20260905183528 78 96 1.0 3.0 0.00 0.00 0.00 90 1015.2
20260905183050 78 71 0.0 4.0 0.00 0.00 0.00 89 1015.2
20260905182527 78 0 0.0 4.0 0.00 0.00 0.00 90 1015.5
20260905182030 78 100 0.0 2.0 0.00 0.00 0.00 89 1015.4
20260905181555 78 103 0.0 2.0 0.00 0.00 0.00 89 1016.0
20260905181026 78 0 0.0 3.0 0.00 0.00 0.00 90 1016.3
20260905180530 78 0 0.0 3.0 0.00 0.00 0.00 91 1016.6
20260905175528 77 0 0.0 2.0 0.00 0.00 0.00 92 1016.6
20260905175030 77 85 0.0 2.0 0.00 0.00 0.00 92 1017.0
20260905174554 77 65 0.0 2.0 0.00 0.00 0.00 92 1016.9
20260905174033 77 0 0.0 1.0 0.00 0.00 0.00 94 1017.0
20260905173530 76 17 0.0 3.0 0.00 0.00 0.00 94 1017.0
20260905173055 76 0 0.0 3.0 0.00 0.00 0.00 95 1017.0
20260905172530 76 90 0.0 3.0 0.00 0.00 0.00 96 1017.2
20260905172030 76 0 0.0 4.0 0.00 0.00 0.00 97 1017.3
20260905171605 75 0 0.0 4.0 0.00 0.00 0.00 98 1017.4
20260905171029 75 0 0.0 4.0 0.00 0.00 0.00 98 1017.4
20260905170528 76 157 0.0 3.0 0.00 0.00 0.00 100 1017.6
20260905170057 75 0 0.0 3.0 0.00 0.00 0.00 100 1017.5
20260905165534 75 0 0.0 3.0 0.00 0.00 0.00 99 1017.7
20260905165030 75 0 0.0 1.0 0.00 0.00 0.00 100 1017.9
20260905164550 74 0 0.0 3.0 0.00 0.00 0.00 99 1018.1
20260905164029 74 338 0.0 7.0 0.00 0.00 0.00 99 1018.2
20260905163532 74 0 1.0 7.0 0.00 0.00 0.00 99 1018.3
20260905163056 74 32 2.0 6.0 0.00 0.00 0.00 99 1018.3
20260905162527 74 251 1.0 3.0 0.00 0.00 0.00 99 1018.3
20260905162030 74 0 0.0 0.0 0.00 0.00 0.00 99 1017.8
20260905161601 74 0 0.0 1.0 0.00 0.00 0.00 99 1017.7
20260905161031 74 0 0.0 1.0 0.00 0.00 0.00 99 1017.6
20260905160533 73 0 0.0 1.0 0.00 0.00 0.00 100 1017.7
20260905160055 73 0 0.0 1.0 0.00 0.00 0.00 99 1017.6
20260905155531 73 0 0.0 1.0 0.00 0.00 0.00 99 1017.6
20260905155031 73 0 0.0 0.0 0.00 0.00 0.00 99 1017.5
20260905154600 73 0 0.0 0.0 0.00 0.00 0.00 99 1017.5
20260905154031 73 0 0.0 0.0 0.00 0.00 0.00 99 1017.6
20260905153530 73 0 0.0 1.0 0.00 0.00 0.00 99 1017.6
20260905153056 73 0 0.0 1.0 0.00 0.00 0.00 100 1017.4
20260905152529 73 0 0.0 0.0 0.00 0.00 0.00 100 1017.3
20260905152030 73 0 0.0 0.0 0.00 0.00 0.00 100 1017.2
20260905151549 73 0 0.0 0.0 0.00 0.00 0.00 99 1017.2
20260905151029 73 0 0.0 0.0 0.00 0.00 0.00 99 1017.1
20260905150529 73 0 0.0 1.0 0.00 0.00 0.00 99 1017.1
20260905150057 73 0 0.0 1.0 0.00 0.00 0.00 99 1017.0
20260905145531 73 0 0.0 0.0 0.00 0.00 0.00 99 1016.9
20260905145028 73 0 0.0 0.0 0.00 0.00 0.00 99 1016.8
20260905144557 73 0 0.0 0.0 0.00 0.00 0.00 99 1016.7
20260905144028 72 0 0.0 0.0 0.00 0.00 0.00 99 1016.7
20260905143530 72 0 0.0 0.0 0.00 0.00 0.00 99 1016.7